TimeEST,TemperatureF,Dew PointF,Humidity,Sea Level PressureIn,VisibilityMPH,Wind Direction,Wind SpeedMPH,Gust SpeedMPH,PrecipitationIn,Events,Conditions,WindDirDegrees,DateUTC
12:52 AM,39.0,37.9,96,30.15,4.0,SSE,9.2,-,0.03,Rain,Light Rain,160,2013-01-28 05:52:00
1:36 AM,41.0,39.2,93,30.12,5.0,South,10.4,-,0.00,,Overcast,180,2013-01-28 06:36:00
1:52 AM,42.1,41.0,96,30.14,6.0,South,9.2,-,0.00,Rain,Light Rain,190,2013-01-28 06:52:00
2:52 AM,43.0,42.1,97,30.15,7.0,SSW,8.1,-,0.01,Rain,Light Rain,200,2013-01-28 07:52:00
3:52 AM,44.1,42.1,93,30.13,8.0,South,11.5,-,0.00,,Overcast,190,2013-01-28 08:52:00
4:52 AM,45.0,42.1,90,30.12,10.0,SSW,11.5,-,0.00,Rain,Light Rain,200,2013-01-28 09:52:00
5:52 AM,46.0,41.0,83,30.10,10.0,SSW,13.8,19.6,0.00,Rain,Light Rain,200,2013-01-28 10:52:00
6:52 AM,46.0,39.9,79,30.09,10.0,South,16.1,25.3,0.00,,Scattered Clouds,190,2013-01-28 11:52:00
8:52 AM,48.0,39.9,74,30.09,10.0,SSW,16.1,25.3,N/A,,Overcast,200,2013-01-28 13:52:00
9:14 AM,48.2,41.0,76,30.08,10.0,SSW,13.8,20.7,N/A,,Overcast,210,2013-01-28 14:14:00
9:49 AM,48.2,42.8,82,30.08,2.5,SSW,12.7,24.2,0.02,Rain,Rain,210,2013-01-28 14:49:00
9:52 AM,48.9,42.1,77,30.09,2.5,SSW,15.0,24.2,0.03,Rain,Rain,210,2013-01-28 14:52:00
10:52 AM,48.9,45.0,86,30.10,7.0,SW,13.8,-,0.10,Rain,Light Rain,220,2013-01-28 15:52:00
10:59 AM,48.2,44.6,87,30.10,2.5,SSW,13.8,19.6,0.00,Rain,Rain,210,2013-01-28 15:59:00
11:32 AM,48.2,46.4,93,30.11,6.0,SSW,8.1,18.4,0.09,Rain,Light Rain,210,2013-01-28 16:32:00
11:52 AM,48.9,46.0,90,30.11,6.0,SSW,11.5,-,0.09,,Overcast,210,2013-01-28 16:52:00
12:06 PM,48.2,46.4,93,30.10,6.0,SSW,12.7,-,N/A,,Overcast,200,2013-01-28 17:06:00
12:52 PM,50.0,46.9,89,30.09,7.0,SSW,10.4,-,N/A,,Overcast,200,2013-01-28 17:52:00
1:16 PM,50.0,46.4,87,30.07,6.0,SSW,11.5,20.7,N/A,,Overcast,210,2013-01-28 18:16:00
1:52 PM,50.0,48.0,93,30.06,3.0,SSW,11.5,24.2,0.02,Rain,Light Rain,210,2013-01-28 18:52:00
2:52 PM,51.1,48.9,92,30.05,4.0,SSW,11.5,19.6,0.03,Rain,Light Rain,210,2013-01-28 19:52:00
3:52 PM,50.0,48.9,96,30.05,4.0,SSW,15.0,-,0.01,,Overcast,210,2013-01-28 20:52:00
4:06 PM,50.0,48.2,94,30.06,2.5,SSW,10.4,-,N/A,,Overcast,210,2013-01-28 21:06:00
4:16 PM,50.0,50.0,100,30.05,2.5,SSW,10.4,18.4,N/A,,Overcast,200,2013-01-28 21:16:00
4:28 PM,50.0,50.0,100,30.05,2.0,SSW,11.5,-,N/A,,Overcast,200,2013-01-28 21:28:00
4:52 PM,50.0,50.0,100,30.05,2.0,SSW,10.4,20.7,N/A,,Overcast,210,2013-01-28 21:52:00
5:16 PM,51.8,50.0,94,30.05,2.0,SSW,9.2,-,N/A,,Overcast,210,2013-01-28 22:16:00
5:52 PM,51.1,50.0,96,30.06,3.0,SSW,10.4,-,N/A,,Overcast,200,2013-01-28 22:52:00
6:52 PM,51.1,50.0,96,30.07,4.0,SSW,8.1,-,0.00,,Overcast,210,2013-01-28 23:52:00
7:52 PM,51.1,50.0,96,30.08,4.0,SSW,10.4,-,N/A,,Overcast,200,2013-01-29 00:52:00
8:52 PM,52.0,51.1,97,30.07,4.0,SSW,10.4,-,0.00,,Light Drizzle,200,2013-01-29 01:52:00
9:31 PM,51.8,51.8,100,30.06,4.0,SSW,10.4,-,0.00,,Overcast,200,2013-01-29 02:31:00
9:52 PM,53.1,51.1,93,30.06,5.0,SSW,10.4,-,0.00,,Overcast,210,2013-01-29 02:52:00
10:52 PM,53.1,51.1,93,30.05,6.0,SSW,9.2,-,N/A,,Overcast,200,2013-01-29 03:52:00
11:52 PM,54.0,51.1,90,30.05,7.0,SSW,11.5,-,N/A,,Overcast,200,2013-01-29 04:52:00